This is the latest recevied weather packets stored in our database for station/object N4BBA. If no packets are shown the sender has not sent any weather packets the latest 10 day(s).
| Time | Temp. | Humidity | Pressure | Rain* | Wind** | Luminosity | Snow |
|---|---|---|---|---|---|---|---|
| 1778012547 | 26.67° C | 46% | 1014.1 hPa | 0 mm | - | 356 W/m² | - |
| 1778012244 | 26.11° C | 47% | 1014.2 hPa | 0 mm | - | 189 W/m² | - |
| 1778011942 | 25.56° C | 48% | 1014.3 hPa | 0 mm | - | 241 W/m² | - |
| 1778011640 | 26.11° C | 46% | 1014.2 hPa | 0 mm | - | 226 W/m² | - |
| 1778011337 | 27.22° C | 46% | 1014.5 hPa | 0 mm | - | 634 W/m² | - |
| 1778011032 | 26.67° C | 46% | 1014.4 hPa | 0 mm | - | 610 W/m² | - |
| 1778010730 | 26.11° C | 47% | 1014.6 hPa | 0 mm | - | 373 W/m² | - |
| 1778010427 | 26.67° C | 46% | 1014.6 hPa | 0 mm | - | 469 W/m² | - |
| 1778010123 | 26.67° C | 46% | 1014.9 hPa | 0 mm | - | 433 W/m² | - |
| 1778009819 | 26.67° C | 46% | 1014.7 hPa | 0 mm | - | 529 W/m² | - |
| 1778009517 | 27.22° C | 45% | 1014.8 hPa | 0 mm | - | 739 W/m² | - |
| 1778009215 | 26.67° C | 45% | 1014.9 hPa | 0 mm | - | 834 W/m² | - |
| 1778008912 | 26.11° C | 46% | 1015.1 hPa | 0 mm | - | 755 W/m² | - |
| 1778008610 | 26.11° C | 45% | 1015.1 hPa | 0 mm | - | 432 W/m² | - |
| 1778008308 | 26.67° C | 45% | 1015.4 hPa | 0 mm | - | 439 W/m² | - |
| 1778008004 | 26.67° C | 45% | 1015.4 hPa | 0 mm | - | 682 W/m² | - |
| 1778007704 | 26.67° C | 45% | 1015.4 hPa | 0 mm | - | 689 W/m² | - |
| 1778007401 | 26.67° C | 45% | 1015.4 hPa | 0 mm | - | 743 W/m² | - |
| 1778007097 | 26.67° C | 46% | 1015.4 hPa | 0 mm | - | 659 W/m² | - |
| 1778006794 | 26.67° C | 46% | 1015.3 hPa | 0 mm | - | 723 W/m² | - |
| 1778006491 | 26.11° C | 46% | 1015.4 hPa | 0 mm | - | 815 W/m² | - |
| 1778006188 | 26.11° C | 46% | 1015.8 hPa | 0 mm | - | 767 W/m² | - |
| 1778005885 | 26.11° C | 46% | 1015.9 hPa | 0 mm | - | 593 W/m² | - |
| 1778005581 | 26.67° C | 45% | 1015.8 hPa | 0 mm | - | 649 W/m² | - |
| 1778005278 | 26.67° C | 46% | 1015.8 hPa | 0 mm | - | 798 W/m² | - |
* Rain latest hour (hover to see other rain measurements)
** Current wind speed in m/s (hover to see current wind gust speed)